FW7515 Weather Reports


time (UTC)temp
C
wind
direction
speed
KPH
gust
KPH
rain 1hr
cm
rain 24hr
cm
rain mn
cm
humidity
%
barometer
mb
20260509162146 28 334 6.4 11.3 0.00 0.00 0.00 52 1011.2
20260509161523 27 337 4.8 14.5 0.00 0.00 0.00 52 1011.1
20260509161021 27 356 6.4 9.7 0.00 0.00 0.00 52 1011.0
20260509160519 27 6 4.8 11.3 0.00 0.00 0.00 52 1011.0
20260509160017 27 345 4.8 11.3 0.00 0.00 0.00 53 1011.2
20260509155516 27 32 8.0 17.7 0.00 0.00 0.00 53 1010.9
20260509155034 27 30 6.4 17.7 0.00 0.00 0.00 54 1010.9
20260509154532 27 13 6.4 14.5 0.00 0.00 0.00 55 1010.9
20260509154030 27 16 6.4 14.5 0.00 0.00 0.00 56 1010.9
20260509153528 27 335 8.0 11.3 0.00 0.00 0.00 56 1010.9
20260509153025 26 6 6.4 12.9 0.00 0.00 0.00 56 1010.9
20260509152523 26 30 6.4 12.9 0.00 0.00 0.00 56 1011.0
20260509152021 26 334 6.4 12.9 0.00 0.00 0.00 57 1010.9
20260509151519 26 347 4.8 9.7 0.00 0.00 0.00 59 1011.0
20260509151016 26 340 3.2 8.0 0.00 0.00 0.00 59 1011.0
20260509150534 26 336 4.8 9.7 0.00 0.00 0.00 62 1011.0
20260509150032 25 343 6.4 11.3 0.00 0.00 0.00 61 1011.0
20260509145529 26 352 6.4 12.9 0.00 0.00 0.00 61 1011.1
20260509145028 25 18 4.8 9.7 0.00 0.00 0.00 63 1011.2
20260509144526 25 355 6.4 12.9 0.00 0.00 0.00 64 1011.2
20260509144024 25 353 6.4 9.7 0.00 0.00 0.00 65 1011.1
20260509143522 25 353 4.8 9.7 0.00 0.00 0.00 67 1011.2
20260509143020 25 4 4.8 11.3 0.00 0.00 0.00 68 1011.2
20260509142518 24 315 4.8 9.7 0.00 0.00 0.00 71 1011.1
20260509142016 24 330 6.4 9.7 0.00 0.00 0.00 74 1011.2
20260509141554 23 333 4.8 8.0 0.00 0.00 0.00 76 1011.2
20260509141032 23 342 3.2 8.0 0.00 0.00 0.00 77 1011.2
20260509140530 23 338 4.8 8.0 0.00 0.00 0.00 77 1011.3
20260509140029 23 316 4.8 8.0 0.00 0.00 0.00 77 1011.3
20260509135546 23 5 3.2 6.4 0.00 0.00 0.00 77 1011.3
20260509135025 23 360 3.2 6.4 0.00 0.00 0.00 77 1011.3
20260509134603 23 12 3.2 6.4 0.00 0.00 0.00 78 1011.3
20260509134021 23 350 3.2 9.7 0.00 0.00 0.00 79 1011.1
20260509133520 23 5 3.2 6.4 0.00 0.00 0.00 80 1011.2
20260509133018 23 356 3.2 8.0 0.00 0.00 0.00 80 1011.0
20260509132516 22 2 3.2 8.0 0.00 0.00 0.00 80 1011.0
20260509132035 22 29 3.2 8.0 0.00 0.00 0.00 81 1011.1
20260509131533 22 359 3.2 6.4 0.00 0.00 0.00 83 1011.1
20260509131031 22 22 3.2 6.4 0.00 0.00 0.00 84 1011.0
20260509130529 21 341 4.8 8.0 0.00 0.00 0.00 85 1011.1
20260509130047 21 348 3.2 6.4 0.00 0.00 0.00 86 1011.0
20260509125524 21 352 3.2 8.0 0.00 0.00 0.00 86 1010.9
20260509125022 21 329 3.2 8.0 0.00 0.00 0.00 87 1010.9
20260509124520 21 348 3.2 8.0 0.00 0.00 0.00 88 1010.9
20260509124018 20 322 1.6 6.4 0.00 0.00 0.00 89 1010.9
20260509123516 20 296 1.6 6.4 0.00 0.00 0.00 89 1010.9
20260509123034 20 327 1.6 4.8 0.00 0.03 0.00 89 1010.9
20260509122532 20 334 1.6 6.4 0.00 0.05 0.00 90 1010.9
20260509122029 20 309 3.2 6.4 0.00 0.05 0.00 90 1010.8
20260509121527 20 247 3.2 8.0 0.00 0.05 0.00 90 1010.8
20260509121025 20 320 3.2 8.0 0.00 0.05 0.00 90 1010.7
20260509120524 20 322 3.2 6.4 0.00 0.05 0.00 90 1010.7
20260509120021 20 2 3.2 6.4 0.00 0.05 0.00 90 1010.7
20260509115520 20 35 3.2 6.4 0.00 0.05 0.00 90 1010.8
20260509115018 20 19 3.2 8.0 0.00 0.18 0.00 90 1010.5
20260509114516 20 353 3.2 6.4 0.00 0.43 0.00 90 1010.3
20260509114053 20 360 3.2 6.4 0.00 0.43 0.00 90 1010.4
20260509113531 20 281 3.2 6.4 0.00 0.43 0.00 90 1010.3
20260509113049 20 332 3.2 6.4 0.00 0.43 0.00 89 1010.2
20260509112548 20 350 4.8 9.7 0.00 0.43 0.00 89 1010.0
20260509112026 20 327 4.8 11.3 0.00 0.43 0.00 88 1010.0
20260509111525 20 326 4.8 8.0 0.00 0.43 0.00 88 1009.8
20260509111023 20 295 4.8 9.7 0.00 0.43 0.00 87 1009.8
20260509110521 20 296 4.8 11.3 0.00 0.43 0.00 86 1009.6
20260509110039 20 314 3.2 8.0 0.00 0.43 0.00 86 1009.5
20260509105517 20 272 3.2 8.0 0.00 0.43 0.00 85 1009.6
20260509105115 20 251 3.2 6.4 0.00 0.43 0.00 84 1009.4
20260509104532 20 265 3.2 8.0 0.00 0.43 0.00 84 1009.6
20260509104030 20 238 3.2 6.4 0.00 0.43 0.00 83 1009.4
20260509103528 20 257 3.2 6.4 0.00 0.43 0.00 83 1009.4
20260509103026 20 252 3.2 8.0 0.00 0.43 0.00 83 1009.4
20260509102524 20 226 6.4 9.7 0.00 0.43 0.00 83 1009.4
20260509102022 20 223 3.2 8.0 0.00 0.48 0.00 82 1009.4
20260509101519 20 234 3.2 6.4 0.00 0.69 0.00 81 1009.3
20260509101017 20 230 3.2 6.4 0.00 0.76 0.00 81 1009.3
20260509100535 20 243 1.6 6.4 0.00 0.76 0.00 80 1009.3
20260509100033 21 245 1.6 4.8 0.00 0.76 0.00 80 1009.2
20260509095532 21 297 1.6 4.8 0.00 0.76 0.00 80 1009.3
20260509095029 21 297 1.6 4.8 0.00 0.76 0.00 79 1009.2
20260509094628 21 329 1.6 4.8 0.00 0.76 0.00 78 1009.0
20260509094025 21 359 1.6 4.8 0.00 0.76 0.00 77 1008.8
20260509093523 21 346 1.6 6.4 0.00 0.76 0.00 76 1008.6
20260509093101 22 333 3.2 4.8 0.00 0.79 0.00 74 1008.5
20260509092518 22 328 3.2 4.8 0.00 0.79 0.00 71 1008.4
20260509092016 22 353 3.2 8.0 0.00 0.79 0.00 68 1008.5
20260509091534 22 344 6.4 14.5 0.00 0.79 0.00 67 1008.5
20260509091033 22 1 4.8 9.7 0.00 0.79 0.00 69 1008.4
20260509090531 22 25 4.8 8.0 0.00 0.79 0.00 73 1008.3
20260509090049 22 5 6.4 11.3 0.00 0.79 0.00 75 1008.3
20260509085527 22 3 8.0 14.5 0.00 0.79 0.00 78 1008.3
20260509085026 21 40 9.7 25.7 0.00 0.79 0.00 82 1008.2
20260509084524 21 236 6.4 12.9 0.00 0.79 0.00 85 1007.2
20260509084021 21 208 6.4 17.7 0.00 0.79 0.00 85 1006.9
20260509083519 21 206 4.8 12.9 0.00 0.79 0.00 84 1006.7
20260509083017 21 174 4.8 9.7 0.00 0.79 0.00 84 1006.7
20260509082535 21 128 4.8 9.7 0.00 0.79 0.00 84 1006.4
20260509082033 21 173 4.8 11.3 0.00 0.79 0.00 84 1006.2
20260509081530 21 183 6.4 12.9 0.00 0.79 0.00 85 1006.2
20260509081028 21 196 4.8 9.7 0.00 0.79 0.00 85 1006.6
20260509080526 21 171 4.8 9.7 0.00 0.79 0.00 85 1007.0
20260509080024 21 181 3.2 8.0 0.00 0.79 0.00 85 1007.6
20260509075543 21 234 3.2 8.0 0.00 0.79 0.00 86 1008.3
20260509075020 21 218 4.8 12.9 0.00 0.79 0.00 86 1008.7
20260509074518 21 209 4.8 16.1 0.00 0.79 0.00 87 1009.0
20260509074016 21 216 6.4 14.5 0.00 0.79 0.00 88 1009.5
20260509073534 21 214 6.4 16.1 0.00 0.79 0.00 88 1009.7
20260509073033 21 216 6.4 14.5 0.00 0.79 0.00 88 1009.6
20260509072531 21 220 9.7 27.4 0.00 0.79 0.00 89 1009.7
20260509072029 21 216 12.9 24.1 0.00 0.79 0.00 89 1010.0
20260509071547 21 207 8.0 22.5 0.00 0.81 0.00 89 1010.1
20260509071025 21 217 9.7 22.5 0.00 0.91 0.00 89 1010.2
20260509070543 21 221 8.0 16.1 0.00 1.04 0.00 89 1010.7
20260509070021 21 224 9.7 20.9 0.00 1.12 0.00 89 1010.8
20260509065520 21 218 8.0 17.7 0.00 1.27 0.00 89 1010.8
20260509065017 21 220 9.7 17.7 0.00 1.32 0.00 90 1011.0
20260509064535 20 211 6.4 12.9 0.00 1.32 0.00 90 1011.0
20260509064034 20 219 4.8 8.0 0.00 1.32 0.00 91 1011.2
20260509063531 20 228 3.2 8.0 0.00 1.32 0.00 90 1011.4
20260509063029 20 221 3.2 4.8 0.00 1.32 0.00 90 1011.4
20260509062527 20 217 3.2 4.8 0.00 1.32 0.00 89 1011.3
20260509062025 20 238 1.6 4.8 0.00 1.32 0.00 89 1011.3
20260509061543 21 246 3.2 4.8 0.00 1.32 0.00 89 1011.4
20260509061021 20 247 3.2 6.4 0.00 1.32 0.00 89 1011.4
20260509060519 20 234 3.2 6.4 0.00 1.32 0.00 89 1011.3
20260509060017 20 225 1.6 3.2 0.00 1.32 0.00 89 1011.3
20260509055535 21 304 1.6 3.2 0.00 1.32 0.00 89 1011.4
20260509055033 21 228 1.6 4.8 0.00 1.32 0.00 88 1011.1
20260509054531 21 215 0.0 3.2 0.00 1.32 0.00 88 1011.1
20260509054029 21 15 0.0 3.2 0.00 1.32 0.00 88 1011.3
20260509053528 21 177 0.0 3.2 0.00 1.32 0.00 87 1011.3
20260509053026 21 343 0.0 3.2 0.00 1.32 0.00 87 1011.7
20260509052523 21 84 0.0 1.6 0.00 1.32 0.00 87 1011.7
20260509052042 21 48 4.8 6.4 0.00 1.32 0.00 86 1011.9
20260509051520 21 43 4.8 8.0 0.00 1.32 0.00 86 1012.0
20260509051018 21 29 3.2 6.4 0.00 1.32 0.00 86 1011.8
20260509050517 21 6 4.8 11.3 0.00 1.32 0.00 86 1011.8
20260509050015 21 1 4.8 9.7 0.00 1.32 1.32 86 1011.8
20260509045553 21 36 1.6 3.2 0.00 1.32 1.32 85 1011.0
20260509045031 21 151 0.0 3.2 0.00 1.32 1.32 85 1010.8
20260509044550 21 140 1.6 6.4 0.00 1.32 1.32 84 1010.7
20260509044027 21 180 1.6 4.8 0.00 1.32 1.32 84 1010.4
20260509043525 22 161 1.6 3.2 0.00 1.32 1.32 84 1010.3
20260509043023 22 184 1.6 6.4 0.00 1.32 1.32 84 1010.2
20260509042521 22 180 1.6 4.8 0.00 1.32 1.32 84 1010.1
20260509042019 22 168 1.6 6.4 0.00 1.32 1.32 84 1010.1
20260509041517 22 176 1.6 6.4 0.00 1.32 1.32 84 1010.1
20260509041034 21 189 1.6 4.8 0.00 1.32 1.32 84 1010.1
20260509040532 22 179 1.6 6.4 0.00 1.32 1.32 84 1010.1
20260509040031 22 156 1.6 3.2 0.00 1.32 1.32 83 1010.3
20260509035649 22 164 1.6 3.2 0.00 1.32 1.32 83 1010.2
20260509035026 22 139 0.0 3.2 0.00 1.32 1.32 82 1010.2
20260509034525 22 127 3.2 6.4 0.00 1.32 1.32 83 1010.5
20260509034023 22 117 3.2 6.4 0.00 1.32 1.32 83 1010.4
20260509033521 22 91 3.2 8.0 0.00 1.32 1.32 83 1010.6
20260509033019 22 70 4.8 9.7 0.00 1.32 1.32 83 1010.7
20260509032558 22 64 6.4 9.7 0.00 1.32 1.32 83 1010.4
20260509032015 22 58 4.8 8.0 0.00 1.32 1.32 82 1010.4
20260509031554 22 67 4.8 8.0 0.00 1.32 1.32 82 1010.2
20260509031031 22 104 3.2 9.7 0.00 1.32 1.32 82 1009.8
20260509030529 22 105 1.6 6.4 0.00 1.32 1.32 82 1009.4
20260509030027 22 128 4.8 9.7 0.00 1.32 1.32 82 1009.0
20260509025526 22 161 3.2 9.7 0.00 1.32 1.32 82 1009.0
20260509025024 22 143 3.2 9.7 0.00 1.32 1.32 81 1009.1
20260509024522 22 145 3.2 6.4 0.00 1.32 1.32 81 1009.1
20260509024040 22 150 3.2 8.0 0.00 1.32 1.32 81 1009.2
20260509023518 22 135 3.2 8.0 0.00 1.32 1.32 81 1009.0
20260509023037 22 176 1.6 8.0 0.00 1.32 1.32 81 1008.7
20260509022555 22 156 3.2 8.0 0.00 1.32 1.32 80 1008.7
20260509022053 22 188 3.2 9.7 0.00 1.32 1.32 80 1008.6
20260509021531 22 183 3.2 9.7 0.00 1.32 1.32 80 1008.4
20260509021049 22 180 3.2 8.0 0.00 1.32 1.32 80 1008.2
20260509020527 22 186 3.2 11.3 0.00 1.32 1.32 79 1008.0
20260509020025 22 172 4.8 9.7 0.00 1.32 1.32 79 1008.0
20260509015523 22 192 4.8 9.7 0.00 1.32 1.32 79 1008.1
20260509015021 22 186 4.8 9.7 0.00 1.32 1.32 79 1008.3
20260509014519 22 183 4.8 11.3 0.00 1.32 1.32 78 1008.4
20260509014017 22 174 3.2 9.7 0.00 1.32 1.32 78 1008.6
20260509013535 22 155 1.6 6.4 0.00 1.32 1.32 78 1008.7
20260509013032 22 168 1.6 6.4 0.00 1.32 1.32 77 1008.7
20260509012530 23 145 3.2 6.4 0.00 1.32 1.32 77 1009.0
20260509012027 23 172 1.6 6.4 0.00 1.32 1.32 77 1009.0
20260509011524 23 169 1.6 4.8 0.00 1.32 1.32 77 1009.1
20260509011022 23 163 1.6 4.8 0.00 1.32 1.32 77 1008.9
20260509010540 23 190 1.6 4.8 0.00 1.32 1.32 76 1008.6
20260509010018 23 147 1.6 6.4 0.00 1.32 1.32 76 1008.6
20260509005516 23 176 3.2 6.4 0.00 1.32 1.32 76 1008.6
20260509005034 23 181 3.2 9.7 0.00 1.32 1.32 76 1008.6
20260509004532 23 202 3.2 8.0 0.00 1.32 1.32 75 1008.5
20260509004030 23 192 4.8 16.1 0.00 1.32 1.32 75 1008.5
20260509003528 23 196 3.2 6.4 0.00 1.32 1.32 75 1008.4
20260509003025 23 215 3.2 11.3 0.00 1.32 1.32 75 1008.4
20260509002524 23 171 3.2 6.4 0.00 1.32 1.32 74 1008.3
20260509002022 23 188 3.2 11.3 0.00 1.32 1.32 74 1008.4
20260509001520 23 210 3.2 8.0 0.00 1.32 1.32 74 1008.2
20260509001018 23 191 3.2 8.0 0.00 1.32 1.32 73 1008.2
20260509000516 23 176 4.8 12.9 0.00 1.32 1.32 73 1008.2
20260509000034 23 191 3.2 8.0 0.00 1.32 1.32 72 1008.4
20260508235532 23 196 3.2 6.4 0.00 1.32 1.32 72 1008.4
20260508235050 23 207 3.2 8.0 0.00 1.32 1.32 72 1008.6
20260508234527 23 198 4.8 9.7 0.00 1.32 1.32 72 1008.7
20260508234026 23 168 3.2 8.0 0.00 1.32 1.32 71 1008.8
20260508233524 23 161 4.8 9.7 0.00 1.32 1.32 71 1008.8
20260508233022 23 161 3.2 9.7 0.00 1.32 1.32 71 1008.8
20260508232520 24 176 3.2 9.7 0.00 1.32 1.32 70 1008.7
20260508232019 24 187 3.2 8.0 0.00 1.32 1.32 69 1008.8
20260508231537 24 190 4.8 11.3 0.00 1.32 1.32 69 1008.8
20260508231015 24 172 4.8 11.3 0.00 1.32 1.32 68 1008.6
20260508230534 25 160 3.2 6.4 0.00 1.32 1.32 67 1008.7
20260508230031 25 204 4.8 9.7 0.00 1.32 1.32 67 1008.7
20260508225529 25 207 4.8 11.3 0.00 1.32 1.32 66 1008.8
20260508225027 25 187 4.8 9.7 0.00 1.32 1.32 66 1008.7
20260508224525 25 155 4.8 9.7 0.00 1.32 1.32 65 1008.6
20260508224022 25 204 3.2 11.3 0.00 1.32 1.32 64 1008.8
20260508223520 26 158 4.8 11.3 0.00 1.32 1.32 63 1008.7
20260508223019 25 212 6.4 14.5 0.00 1.32 1.32 64 1008.8
20260508222516 25 186 4.8 9.7 0.00 1.32 1.32 64 1008.8
20260508222035 26 187 4.8 12.9 0.00 1.32 1.32 63 1008.8
20260508221533 26 177 4.8 14.5 0.00 1.32 1.32 62 1008.7
20260508221031 26 178 4.8 17.7 0.00 1.32 1.32 61 1008.8
20260508220528 26 162 4.8 12.9 0.00 1.32 1.32 60 1008.7
20260508220026 26 193 3.2 8.0 0.00 1.32 1.32 61 1008.8
20260508215545 26 182 4.8 12.9 0.00 1.32 1.32 61 1008.8
20260508215022 26 175 6.4 12.9 0.00 1.32 1.32 60 1008.8
20260508214520 26 184 4.8 11.3 0.00 1.32 1.32 59 1009.0
20260508214018 26 158 8.0 22.5 0.00 1.32 1.32 59 1009.0
20260508213536 26 192 4.8 12.9 0.00 1.32 1.32 58 1009.0
20260508213034 26 200 4.8 11.3 0.00 1.32 1.32 58 1009.0
20260508212531 26 185 3.2 11.3 0.00 1.32 1.32 58 1009.1
20260508212029 26 184 4.8 11.3 0.00 1.32 1.32 58 1009.3
20260508211527 26 199 4.8 12.9 0.00 1.32 1.32 58 1009.4
20260508211025 26 158 3.2 14.5 0.00 1.32 1.32 59 1009.4
20260508210523 26 194 4.8 16.1 0.00 1.32 1.32 59 1009.5
20260508210021 26 179 4.8 12.9 0.00 1.32 1.32 59 1009.6
20260508205519 26 190 4.8 12.9 0.00 1.32 1.32 58 1009.8
20260508205018 26 209 3.2 9.7 0.00 1.32 1.32 58 1009.6
20260508204516 25 185 4.8 9.7 0.00 1.32 1.32 59 1009.4
20260508204033 25 126 4.8 14.5 0.00 1.32 1.32 60 1009.5
20260508203531 25 110 4.8 11.3 0.00 1.32 1.32 60 1009.5
20260508203029 25 179 4.8 11.3 0.00 1.32 1.32 60 1009.9
20260508202528 24 197 3.2 9.7 0.00 1.32 1.32 61 1010.5
20260508202046 24 178 3.2 9.7 0.00 1.32 1.32 62 1010.7
20260508201524 23 209 4.8 12.9 0.00 1.32 1.32 64 1010.8
20260508201021 23 193 4.8 12.9 0.00 1.32 1.32 65 1010.9
20260508200519 23 202 4.8 8.0 0.00 1.32 1.32 65 1011.1
20260508200017 23 207 4.8 9.7 0.00 1.32 1.32 65 1011.3
20260508195515 23 211 6.4 16.1 0.00 1.32 1.32 64 1011.3
20260508195033 24 213 4.8 14.5 0.00 1.32 1.32 63 1011.2
20260508194551 24 210 4.8 11.3 0.00 1.32 1.32 62 1011.1
20260508194028 24 213 3.2 11.3 0.00 1.32 1.32 61 1011.1
20260508193526 24 210 4.8 14.5 0.00 1.32 1.32 62 1011.2
20260508193024 24 220 6.4 12.9 0.00 1.32 1.32 61 1011.1
20260508192522 24 179 4.8 12.9 0.00 1.32 1.32 61 1011.1
20260508192041 24 201 4.8 11.3 0.00 1.32 1.32 61 1011.1
20260508191518 25 171 4.8 11.3 0.00 1.32 1.32 61 1011.2
20260508191036 24 202 4.8 11.3 0.00 1.32 1.32 61 1011.2
20260508190534 25 201 4.8 11.3 0.00 1.32 1.32 60 1011.4
20260508190032 25 226 4.8 9.7 0.00 1.32 1.32 60 1011.5
20260508185530 25 152 4.8 11.3 0.00 1.32 1.32 59 1011.3
20260508185029 25 147 4.8 11.3 0.00 1.32 1.32 58 1011.2
20260508184527 25 183 3.2 9.7 0.00 1.32 1.32 58 1011.4
20260508184025 25 194 4.8 14.5 0.00 1.32 1.32 59 1011.5
20260508183523 25 213 4.8 11.3 0.00 1.32 1.32 58 1011.5
20260508183021 25 224 3.2 8.0 0.00 1.32 1.32 58 1011.6
20260508182519 25 214 3.2 11.3 0.00 1.32 1.32 57 1011.7
20260508182017 25 216 4.8 9.7 0.00 1.32 1.32 58 1011.8
20260508181515 25 173 3.2 9.7 0.00 1.32 1.32 58 1011.8
20260508181033 25 179 3.2 9.7 0.00 1.32 1.32 59 1011.8
20260508180531 25 198 3.2 8.0 0.00 1.32 1.32 59 1012.0
20260508180029 25 198 4.8 11.3 0.00 1.32 1.32 59 1012.2
20260508175527 24 219 6.4 14.5 0.00 1.32 1.32 59 1012.2
20260508175025 25 208 4.8 11.3 0.00 1.32 1.32 57 1012.2
20260508174523 25 196 4.8 11.3 0.00 1.32 1.32 57 1012.2
20260508174021 25 143 4.8 11.3 0.00 1.32 1.32 57 1012.3
20260508173519 25 191 4.8 11.3 0.00 1.32 1.32 58 1012.4
20260508173016 25 156 4.8 11.3 0.00 1.32 1.32 57 1012.3
20260508172534 25 181 4.8 12.9 0.00 1.32 1.32 57 1012.5
20260508172032 24 157 6.4 16.1 0.00 1.32 1.32 58 1012.6
20260508171530 24 155 6.4 14.5 0.00 1.32 1.32 59 1012.7
20260508171028 23 195 4.8 11.3 0.00 1.32 1.32 60 1012.9
20260508170526 23 210 4.8 12.9 0.00 1.32 1.32 62 1012.8
20260508170044 23 216 6.4 20.9 0.00 1.32 1.32 61 1012.8
20260508165522 24 213 4.8 14.5 0.00 1.32 1.32 60 1012.9
20260508165040 23 191 3.2 11.3 0.00 1.32 1.32 61 1013.1
20260508164539 23 211 4.8 9.7 0.00 1.32 1.32 63 1013.2
20260508164036 23 216 6.4 14.5 0.00 1.32 1.32 63 1013.3
20260508163534 23 178 4.8 8.0 0.00 1.32 1.32 63 1013.2
20260508163053 22 175 3.2 9.7 0.00 1.32 1.32 64 1013.3
20260508162530 22 146 4.8 8.0 0.00 1.32 1.32 65 1013.6